User: anonymous   Login
Location: Linz
(48.3300°N, 14.3000°E)
Time: 18:51:18
(UTC+02:00)
Language:

YUBILEINY - Orbit

View from above orbital plane
View from above orbital plane
View from above satellite
View from above satellite

Ground track
Ground track

The orbit data is extracted from the following two-line orbital elements,

1 32953U 08025A   18265.58626212 +.00000039 +00000-0 +20694-3 0  9997
2 32953 082.5024 312.1107 0018800 001.1223 358.9896 12.43085551468871
Epoch (UTC): 22 September 2018 14:04:13
Eccentricity: 0.0018800
inclination: 82.5024°
perigee height: 1479 km
apogee height: 1508 km
right ascension of ascending node: 312.1107°
argument of perigee: 1.1223°
revolutions per day: 12.43085551
mean anomaly at epoch: 358.9896°
orbit number at epoch: 46887

The dashed part of the orbit path shows where the satellite is in the earth's shadow,  

DLR